FENGYUN 1C DEB

Satellite information

Favourite Embed

Satellite Type and Status

DEBRISIN ORBIT

Key statistics

Satellite FENGYUN 1C DEB at a glance.

Uptime

9556

Days in orbit

Revolutions

≈ 14.4

Per day

Orbit

SSO

Sun Synchronous Orbit

Inclination

98.9

Latest

Satellite identification and parameters

Extended collection of information and parameters for FENGYUN 1C DEB.

Object identification

Identified? True

Debris? True

Object name: FENGYUN 1C DEB

International designator: 1999-025CRY

Object number (NORAD): 32130

Object ID (CCSDS): 32130

Country: PEOPLES REPUBLIC OF CHINA (PRC)

Current information (Y/N): Y

RCS size: SMALL

Orbital parameters

Period: 100.21 minutes

Inclination: 98.8913 deg

SMA: 7146.604 km

Apoapsis: 829.148 km

Periapsis: 707.789 km

RAAN: 347.2297 deg

Eccentricy: 0.0084907

Argument of periapsis: 83.0335 deg

Mean anomaly: 278.0499 deg

Mean motion: 14.36988256 rev/day

Mean motion (dot): 0.00000979 rev/day2

B* drag term: 0.0003324 1/REarth

Two-line elements (TLE)

Creation date: July 5, 2025, 5:45 p.m.

Reference frame: TEME

Reference center: EARTH

Epoch: July 5, 2025, 5:36 a.m. UTC

TLE line 0: 0 FENGYUN 1C DEB

TLE line 1: 1 32130U 99025CRY 25186.23369768 .00000979 00000-0 33240-3 0 9990

TLE line 2: 2 32130 98.8913 347.2297 0084907 83.0335 278.0499 14.36988256939296

Live tracking on map

Real-time ground track for satellite FENGYUN 1C DEB.

In-orbit conjunctions

A list of the most updated potential collisions computed for object FENGYUN 1C DEB.

Target Orbit TCA Probability of collision Miss distance Type
COSMOS 2251 DEB LEO 2025-02-18 20:07:08 0.0001084816 106.0 (m) DEBRIS
CZ-6A DEB LEO 2025-01-27 12:43:31 0.0001084458 195.0 (m) DEBRIS
COSMOS 304 LEO 2024-12-24 07:12:57 0.0002674951 259.0 (m) PAYLOAD

Associated space launch

Chinese polar orbiting meteorological satellite

FENGYUN 1C DEB was lifted into orbit during the mission ‘Long March 4B | Feng Yun 1C’, on board a Long March 4B space rocket.

The launch took place on May 10, 1999, 1:33 a.m. from Launch Complex 7.

For more information about the launch, click the button.

Launch to space Long March 4B | Feng Yun 1C
Long March 4B | Feng Yun 1C

Agency: N/A

Status: Launch Successful

Launch date: May 10, 1999, 1:33 a.m. UTC

Rocket: Long March 4B

Launch pad: Launch Complex 7

Location: Taiyuan Satellite Launch Center, People's Republic of China

...

Latest news about this satellite

There are no fresh news available about this satellite. Check back as we update our databases every day.


Newsletter sign-up

Weekly statistics, charts and insights to help you stay on top of the space industry.